Hourly Weather Kizilyurt

Today, 29 July, Thursday

Time Temperature Precipitation Wind Pressure Humidity
00:00 +20°C° 0 mm 2 mps 757 mmHg 71%
01:00 +19°C° 0 mm 2 mps 757 mmHg 71%
02:00 +19°C° 0 mm 2 mps 756 mmHg 71%
03:00 +20°C° 0 mm 1 mps 756 mmHg 72%
04:00 +20°C° 0 mm 1 mps 756 mmHg 70%
05:00 +21°C° 0 mm 1 mps 756 mmHg 68%
06:00 +21°C° 0 mm 1 mps 756 mmHg 66%
07:00 +24°C° 0 mm 1 mps 756 mmHg 56%
08:00 +26°C° 0 mm 2 mps 756 mmHg 47%
09:00 +28°C° 0 mm 3 mps 756 mmHg 37%
10:00 +30°C° 0 mm 4 mps 756 mmHg 33%
11:00 +32°C° 0 mm 6 mps 755 mmHg 28%
12:00 +34°C° 0 mm 7 mps 755 mmHg 23%
13:00 +34°C° 0 mm 7 mps 755 mmHg 23%
14:00 +34°C° 0 mm 7 mps 754 mmHg 23%
15:00 +34°C° 0 mm 7 mps 754 mmHg 23%
16:00 +33°C° 0 mm 7 mps 754 mmHg 27%
17:00 +30°C° 0 mm 6 mps 754 mmHg 31%
18:00 +29°C° 0 mm 6 mps 754 mmHg 35%
19:00 +27°C° 0 mm 5 mps 754 mmHg 42%
20:00 +26°C° 0 mm 4 mps 754 mmHg 48%
21:00 +24°C° 0 mm 3 mps 754 mmHg 55%
22:00 +24°C° 0 mm 3 mps 754 mmHg 56%
23:00 +22°C° 0 mm 3 mps 754 mmHg 56%

Tomorrow, 30 July, Friday

Time Temperature Precipitation Wind Pressure Humidity
00:00 +23°C° 0 mm 2 mps 754 mmHg 57%
01:00 +23°C° 0 mm 2 mps 754 mmHg 58%
02:00 +23°C° 0 mm 2 mps 754 mmHg 59%
03:00 +21°C° 0 mm 2 mps 754 mmHg 60%
04:00 +23°C° 0 mm 2 mps 754 mmHg 59%
05:00 +24°C° 0 mm 2 mps 754 mmHg 57%
06:00 +24°C° 0 mm 1 mps 754 mmHg 55%
07:00 +27°C° 0 mm 2 mps 754 mmHg 46%
08:00 +29°C° 0 mm 3 mps 754 mmHg 37%
09:00 +32°C° 0 mm 4 mps 754 mmHg 28%
10:00 +33°C° 0 mm 5 mps 753 mmHg 26%
11:00 +34°C° 0 mm 6 mps 753 mmHg 24%
12:00 +35°C° 0 mm 7 mps 753 mmHg 22%
13:00 +35°C° 0 mm 7 mps 752 mmHg 22%
14:00 +35°C° 0 mm 7 mps 752 mmHg 23%
15:00 +35°C° 0 mm 7 mps 752 mmHg 23%
16:00 +34°C° 0 mm 6 mps 752 mmHg 27%
17:00 +33°C° 0 mm 6 mps 752 mmHg 32%
18:00 +30°C° 0 mm 6 mps 752 mmHg 36%
19:00 +29°C° 0 mm 5 mps 752 mmHg 44%
20:00 +27°C° 0 mm 4 mps 752 mmHg 52%
21:00 +25°C° 0 mm 3 mps 752 mmHg 59%
22:00 +25°C° 0 mm 3 mps 752 mmHg 59%
23:00 +25°C° 0 mm 2 mps 752 mmHg 59%

Day after tomorrow, 31 July, Saturday

Time Temperature Precipitation Wind Pressure Humidity
00:00 +24°C° 0 mm 2 mps 752 mmHg 58%
01:00 +24°C° 0 mm 2 mps 751 mmHg 59%
02:00 +24°C° 0 mm 2 mps 751 mmHg 59%
03:00 +23°C° 0 mm 1 mps 751 mmHg 59%
04:00 +24°C° 0 mm 1 mps 752 mmHg 57%
05:00 +25°C° 0 mm 1 mps 752 mmHg 55%
06:00 +25°C° 0 mm 1 mps 752 mmHg 53%
07:00 +27°C° 0 mm 1 mps 752 mmHg 46%
08:00 +30°C° 0 mm 1 mps 752 mmHg 39%
09:00 +32°C° 0 mm 1 mps 752 mmHg 32%
10:00 +34°C° 0 mm 2 mps 752 mmHg 29%
11:00 +36°C° 0 mm 2 mps 751 mmHg 26%
12:00 +37°C° 0 mm 3 mps 751 mmHg 23%
13:00 +38°C° 0 mm 4 mps 751 mmHg 22%
14:00 +39°C° 0 mm 5 mps 751 mmHg 21%
15:00 +39°C° 0 mm 5 mps 751 mmHg 20%
16:00 +37°C° 0 mm 5 mps 751 mmHg 23%
17:00 +35°C° 0 mm 4 mps 751 mmHg 26%
18:00 +34°C° 0 mm 4 mps 751 mmHg 28%
19:00 +31°C° 0 mm 3 mps 752 mmHg 34%
20:00 +29°C° 0 mm 3 mps 752 mmHg 40%
21:00 +27°C° 0 mm 2 mps 752 mmHg 46%
22:00 +26°C° 0 mm 2 mps 752 mmHg 47%
23:00 +26°C° 0 mm 2 mps 752 mmHg 48%

1 August, Sunday

Time Temperature Precipitation Wind Pressure Humidity
00:00 +26°C° 0 mm 1 mps 752 mmHg 49%
01:00 +25°C° 0 mm 1 mps 752 mmHg 50%
02:00 +25°C° 0 mm 1 mps 752 mmHg 51%
03:00 +25°C° 0 mm 1 mps 752 mmHg 52%
04:00 +25°C° 0 mm 1 mps 752 mmHg 51%
05:00 +26°C° 0 mm 1 mps 752 mmHg 50%
06:00 +27°C° 0 mm 1 mps 753 mmHg 49%
07:00 +29°C° 0 mm 1 mps 753 mmHg 44%
08:00 +31°C° 0 mm 1 mps 753 mmHg 38%
09:00 +33°C° 0 mm 1 mps 753 mmHg 33%
10:00 +36°C° 0 mm 2 mps 752 mmHg 30%
11:00 +37°C° 0 mm 3 mps 752 mmHg 28%
12:00 +38°C° 0 mm 4 mps 752 mmHg 25%
13:00 +39°C° 0 mm 5 mps 751 mmHg 26%
14:00 +39°C° 0 mm 6 mps 751 mmHg 26%
15:00 +39°C° 0 mm 7 mps 751 mmHg 27%
16:00 +36°C° 0 mm 6 mps 751 mmHg 31%
17:00 +35°C° 0 mm 6 mps 751 mmHg 34%
18:00 +33°C° 0 mm 6 mps 751 mmHg 37%
19:00 +32°C° 0 mm 5 mps 752 mmHg 42%
20:00 +30°C° 0 mm 4 mps 752 mmHg 47%
21:00 +28°C° 0 mm 4 mps 752 mmHg 52%
22:00 +28°C° 0 mm 3 mps 752 mmHg 53%
23:00 +28°C° 0 mm 3 mps 752 mmHg 54%

2 August, Monday

Time Temperature Precipitation Wind Pressure Humidity
00:00 +27°C° 0 mm 2 mps 752 mmHg 55%
01:00 +27°C° 0 mm 2 mps 752 mmHg 56%
02:00 +27°C° 0 mm 2 mps 752 mmHg 56%
03:00 +26°C° 0 mm 1 mps 752 mmHg 57%
04:00 +27°C° 0 mm 1 mps 752 mmHg 56%
05:00 +27°C° 0 mm 1 mps 752 mmHg 55%
06:00 +28°C° 0 mm 1 mps 752 mmHg 54%
07:00 +30°C° 0 mm 2 mps 752 mmHg 45%
08:00 +34°C° 0 mm 3 mps 752 mmHg 37%
09:00 +37°C° 0 mm 3 mps 752 mmHg 28%
10:00 +39°C° 0 mm 5 mps 752 mmHg 24%
11:00 +41°C° 0 mm 6 mps 751 mmHg 21%
12:00 +43°C° 0 mm 8 mps 751 mmHg 17%
13:00 +41°C° 0 mm 8 mps 751 mmHg 17%
14:00 +42°C° 0 mm 9 mps 751 mmHg 17%
15:00 +42°C° 0 mm 9 mps 751 mmHg 17%
16:00 +39°C° 0 mm 8 mps 751 mmHg 18%
17:00 +38°C° 0 mm 7 mps 751 mmHg 20%
18:00 +36°C° 0 mm 5 mps 751 mmHg 21%
19:00 +34°C° 0 mm 4 mps 752 mmHg 28%
20:00 +31°C° 0 mm 3 mps 752 mmHg 34%
21:00 +29°C° 0 mm 2 mps 752 mmHg 41%
22:00 +28°C° 0 mm 2 mps 752 mmHg 44%
23:00 +27°C° 0 mm 2 mps 752 mmHg 48%

3 August, Tuesday

Time Temperature Precipitation Wind Pressure Humidity
00:00 +26°C° 0 mm 2 mps 752 mmHg 52%
01:00 +26°C° 0 mm 2 mps 752 mmHg 51%
02:00 +26°C° 0 mm 2 mps 751 mmHg 50%
03:00 +26°C° 0 mm 2 mps 751 mmHg 50%
04:00 +27°C° 0 mm 2 mps 751 mmHg 48%
05:00 +27°C° 0 mm 1 mps 751 mmHg 46%
06:00 +28°C° 0 mm 1 mps 752 mmHg 44%
07:00 +31°C° 0 mm 1 mps 752 mmHg 38%
08:00 +33°C° 0 mm 1 mps 752 mmHg 32%
09:00 +35°C° 0 mm 1 mps 752 mmHg 26%
10:00 +38°C° 0 mm 2 mps 752 mmHg 23%
11:00 +39°C° 0 mm 3 mps 751 mmHg 21%
12:00 +42°C° 0 mm 3 mps 751 mmHg 18%
13:00 +42°C° 0 mm 4 mps 751 mmHg 18%
14:00 +41°C° 0 mm 5 mps 750 mmHg 17%
15:00 +41°C° 0 mm 6 mps 750 mmHg 16%
16:00 +40°C° 0 mm 6 mps 750 mmHg 18%
17:00 +39°C° 0 mm 5 mps 750 mmHg 19%
18:00 +37°C° 0 mm 5 mps 750 mmHg 21%
19:00 +35°C° 0 mm 4 mps 751 mmHg 27%
20:00 +33°C° 0 mm 3 mps 751 mmHg 32%
21:00 +29°C° 0 mm 3 mps 751 mmHg 38%
22:00 +29°C° 0 mm 2 mps 751 mmHg 39%
23:00 +29°C° 0 mm 2 mps 751 mmHg 40%
Show more